CFG9VA EDDH-LEPA

Flight info

Callsign CFG9VA
Flight time N/A
Altitude 37000
Route HABFU1C/05 HABFU Y348 MAWEQ Z718 OSNAD DCT LIRSU DCT LIMGO DCT SUTAL DCT GTQ DCT POGOL DCT LASAT DCT MOROK DCT GILIR DCT GEVEA DCT INCUS DCT BALSI DCT RETNO DCT TUPOX DCT MTG DCT DIVKO DCT VATIR N852 VERSO DCT LUNIK
Aircraft A320/M-SDGHIJ1RWXY/LB1

Departure

Time N/A
Airport Hamburg Helmut Schmidt Airport (EDDH)

Arrival

Time 2026-05-07 16:02
Airport Palma de Mallorca Airport (LEPA)
Time Latitude Longitude Altitude Speed Heading
2026-05-07 14:45 46.54268 6.16980 34991 ft 453 kts 189°
2026-05-07 14:45 46.47973 6.16153 34984 ft 453 kts 189°
2026-05-07 14:46 46.41673 6.15327 34979 ft 453 kts 189°
2026-05-07 14:46 46.35382 6.14505 34974 ft 453 kts 189°
2026-05-07 14:47 46.29142 6.13690 34987 ft 453 kts 189°
2026-05-07 14:47 46.22903 6.12646 34972 ft 449 kts 194°
2026-05-07 14:48 46.19834 6.11954 34975 ft 449 kts 193°
2026-05-07 14:48 46.13674 6.10586 34977 ft 450 kts 193°
2026-05-07 14:49 46.07478 6.09214 34981 ft 450 kts 193°
2026-05-07 14:49 46.01241 6.07836 34977 ft 449 kts 193°
2026-05-07 14:50 45.95077 6.06474 34978 ft 448 kts 193°
2026-05-07 14:50 45.88900 6.05112 34986 ft 448 kts 193°
2026-05-07 14:51 45.82751 6.03757 34980 ft 447 kts 193°
2026-05-07 14:51 45.76760 6.02433 34983 ft 445 kts 194°
2026-05-07 14:52 45.70706 6.01097 34981 ft 444 kts 194°
2026-05-07 14:52 45.66700 6.00215 34977 ft 444 kts 194°
2026-05-07 14:53 45.60596 5.98873 34968 ft 444 kts 194°
2026-05-07 14:53 45.54476 5.97532 34965 ft 444 kts 194°
2026-05-07 14:54 45.48355 5.96172 34961 ft 442 kts 195°
2026-05-07 14:54 45.42342 5.94355 34973 ft 440 kts 197°
2026-05-07 14:55 45.36322 5.92480 34989 ft 439 kts 197°
2026-05-07 14:55 45.30365 5.90627 35001 ft 439 kts 197°
2026-05-07 14:56 45.24359 5.88760 35006 ft 438 kts 197°
2026-05-07 14:56 45.18404 5.86913 35003 ft 438 kts 197°
2026-05-07 14:57 45.12423 5.85061 35007 ft 437 kts 197°
2026-05-07 14:57 45.06495 5.83230 35011 ft 437 kts 197°
2026-05-07 14:58 45.00559 5.81398 35009 ft 436 kts 197°
2026-05-07 14:58 44.94601 5.79564 35013 ft 436 kts 197°
2026-05-07 14:59 44.88820 5.77788 35011 ft 436 kts 197°
2026-05-07 14:59 44.82874 5.75963 35002 ft 434 kts 197°
2026-05-07 15:00 44.76936 5.74148 34994 ft 433 kts 197°
2026-05-07 15:00 44.71044 5.72350 34988 ft 433 kts 197°
2026-05-07 15:01 44.65135 5.70549 34988 ft 434 kts 197°
2026-05-07 15:01 44.59219 5.68751 34986 ft 434 kts 197°
2026-05-07 15:02 44.53331 5.66965 34981 ft 434 kts 197°
2026-05-07 15:02 44.47398 5.65171 34982 ft 433 kts 197°
2026-05-07 15:03 44.41530 5.63382 34981 ft 432 kts 198°
2026-05-07 15:03 44.35773 5.61037 34986 ft 429 kts 203°
2026-05-07 15:04 44.30220 5.58052 34983 ft 428 kts 205°
2026-05-07 15:04 44.24680 5.55030 34979 ft 427 kts 205°
2026-05-07 15:05 44.19138 5.52009 34979 ft 427 kts 205°
2026-05-07 15:05 44.13581 5.48980 34975 ft 427 kts 205°
2026-05-07 15:06 44.08067 5.45979 34980 ft 427 kts 205°
2026-05-07 15:06 44.02502 5.42959 34977 ft 427 kts 205°
2026-05-07 15:07 43.96953 5.39953 34977 ft 426 kts 205°
2026-05-07 15:07 43.91436 5.36968 34968 ft 425 kts 205°
2026-05-07 15:08 43.86062 5.34063 34955 ft 425 kts 205°
2026-05-07 15:08 43.80545 5.31088 34948 ft 425 kts 205°
2026-05-07 15:09 43.75024 5.28117 34939 ft 424 kts 205°
2026-05-07 15:09 43.69521 5.25159 34936 ft 423 kts 205°
2026-05-07 15:10 43.64034 5.22218 34940 ft 423 kts 205°
2026-05-07 15:10 43.58569 5.19293 34943 ft 421 kts 205°
2026-05-07 15:11 43.53106 5.16374 34952 ft 421 kts 205°
2026-05-07 15:11 43.47658 5.13471 34949 ft 420 kts 205°
2026-05-07 15:12 43.42257 5.10484 34949 ft 418 kts 208°
2026-05-07 15:12 43.37092 5.06878 34950 ft 414 kts 213°
2026-05-07 15:13 43.32243 5.02622 34947 ft 411 kts 217°
2026-05-07 15:13 43.27532 4.98201 34942 ft 410 kts 217°
2026-05-07 15:14 43.22841 4.93804 34943 ft 409 kts 217°
2026-05-07 15:14 43.18161 4.89417 34941 ft 408 kts 217°
2026-05-07 15:15 43.13499 4.85049 34947 ft 406 kts 217°
2026-05-07 15:15 43.08834 4.80689 34942 ft 406 kts 217°
2026-05-07 15:16 43.04077 4.76546 34947 ft 407 kts 213°
2026-05-07 15:16 42.99139 4.72796 34951 ft 407 kts 213°
2026-05-07 15:17 42.94191 4.69030 34951 ft 406 kts 213°
2026-05-07 15:17 42.89360 4.65365 34957 ft 406 kts 213°
2026-05-07 15:18 42.84421 4.61634 34954 ft 405 kts 213°
2026-05-07 15:18 42.79487 4.57912 34956 ft 405 kts 212°
2026-05-07 15:19 42.74585 4.54221 34953 ft 404 kts 212°
2026-05-07 15:19 42.69659 4.50523 34953 ft 403 kts 212°
2026-05-07 15:20 42.64761 4.46849 34953 ft 404 kts 212°
2026-05-07 15:20 42.59858 4.43178 34954 ft 402 kts 212°
2026-05-07 15:21 42.54946 4.39507 34951 ft 402 kts 212°
2026-05-07 15:21 42.50044 4.35852 34953 ft 402 kts 212°
2026-05-07 15:22 42.45150 4.32209 34955 ft 401 kts 211°
2026-05-07 15:22 42.40265 4.28583 34955 ft 401 kts 211°
2026-05-07 15:23 42.35360 4.24943 34955 ft 400 kts 212°
2026-05-07 15:23 42.30487 4.21335 34956 ft 399 kts 211°
2026-05-07 15:24 42.25634 4.17747 34955 ft 399 kts 211°
2026-05-07 15:24 42.20762 4.14152 34954 ft 398 kts 211°
2026-05-07 15:25 42.15925 4.10591 34953 ft 396 kts 211°
2026-05-07 15:25 42.11091 4.07034 34951 ft 396 kts 211°
2026-05-07 15:26 42.06250 4.03487 34953 ft 396 kts 210°
2026-05-07 15:26 42.01410 3.99943 34954 ft 395 kts 210°
2026-05-07 15:27 41.96509 3.96680 34956 ft 396 kts 206°
2026-05-07 15:27 41.91343 3.94023 34955 ft 399 kts 201°
2026-05-07 15:28 41.85957 3.92023 34956 ft 402 kts 197°
2026-05-07 15:28 41.80405 3.90635 34964 ft 404 kts 194°
2026-05-07 15:29 41.74875 3.89329 34968 ft 404 kts 194°
2026-05-07 15:29 41.69352 3.88042 34968 ft 404 kts 194°
2026-05-07 15:30 41.63839 3.86767 34964 ft 404 kts 194°
2026-05-07 15:30 41.58282 3.85490 34957 ft 405 kts 194°
2026-05-07 15:31 41.52725 3.84213 34959 ft 405 kts 194°
2026-05-07 15:31 41.47152 3.82935 34949 ft 404 kts 194°
2026-05-07 15:32 41.41620 3.81671 34943 ft 405 kts 194°
2026-05-07 15:32 41.36058 3.80401 34943 ft 405 kts 194°
2026-05-07 15:33 41.30489 3.79131 34935 ft 405 kts 194°
2026-05-07 15:33 41.24934 3.77869 34933 ft 405 kts 194°
2026-05-07 15:34 41.19352 3.76560 34936 ft 406 kts 196°
2026-05-07 15:34 41.13914 3.74714 34929 ft 403 kts 200°
2026-05-07 15:35 41.08616 3.72198 34931 ft 402 kts 204°
2026-05-07 15:35 41.03401 3.69526 34929 ft 402 kts 204°
2026-05-07 15:36 40.98142 3.66832 34505 ft 403 kts 204°
2026-05-07 15:36 40.95536 3.65498 33945 ft 403 kts 204°
2026-05-07 15:36 40.92911 3.64153 33373 ft 405 kts 204°
2026-05-07 15:37 40.90277 3.62801 32807 ft 408 kts 204°
2026-05-07 15:37 40.87631 3.61444 32250 ft 410 kts 203°
2026-05-07 15:37 40.84996 3.60096 31696 ft 412 kts 203°
2026-05-07 15:37 40.82306 3.58720 31139 ft 415 kts 203°
2026-05-07 15:38 40.79642 3.57358 30589 ft 414 kts 203°
2026-05-07 15:38 40.76950 3.55985 30097 ft 411 kts 203°
2026-05-07 15:38 40.74297 3.54633 29623 ft 409 kts 203°
2026-05-07 15:38 40.71655 3.53288 29149 ft 407 kts 203°
2026-05-07 15:39 40.69029 3.51950 28674 ft 406 kts 203°
2026-05-07 15:39 40.66406 3.50614 28205 ft 405 kts 203°
2026-05-07 15:39 40.63767 3.49270 27730 ft 404 kts 203°
2026-05-07 15:39 40.61172 3.47952 27259 ft 403 kts 203°
2026-05-07 15:40 40.58581 3.46636 26797 ft 402 kts 203°
2026-05-07 15:40 40.55979 3.45314 26332 ft 401 kts 203°
2026-05-07 15:40 40.53380 3.43998 25864 ft 400 kts 203°
2026-05-07 15:40 40.50789 3.42686 25401 ft 399 kts 203°
2026-05-07 15:41 40.48199 3.41375 24931 ft 398 kts 203°
2026-05-07 15:41 40.45573 3.40266 24465 ft 399 kts 196°
2026-05-07 15:41 40.42835 3.39622 23995 ft 401 kts 189°
2026-05-07 15:41 40.40050 3.39456 23543 ft 403 kts 182°
2026-05-07 15:42 40.37255 3.39579 23164 ft 402 kts 181°
2026-05-07 15:42 40.34439 3.39742 22781 ft 400 kts 180°
2026-05-07 15:42 40.31679 3.39906 22397 ft 398 kts 180°
2026-05-07 15:42 40.28925 3.40070 22014 ft 396 kts 180°
2026-05-07 15:43 40.26193 3.40228 21639 ft 394 kts 180°
2026-05-07 15:43 40.23469 3.40385 21261 ft 391 kts 179°
2026-05-07 15:43 40.20760 3.40541 20879 ft 389 kts 179°
2026-05-07 15:43 40.18056 3.40694 20498 ft 387 kts 179°
2026-05-07 15:44 40.15403 3.40845 20116 ft 384 kts 179°
2026-05-07 15:44 40.12718 3.40996 19730 ft 382 kts 178°
2026-05-07 15:44 40.10089 3.41143 19353 ft 381 kts 178°
2026-05-07 15:44 40.07440 3.41291 18969 ft 379 kts 178°
2026-05-07 15:45 40.04834 3.41438 18598 ft 376 kts 178°
2026-05-07 15:45 40.02197 3.41587 18223 ft 375 kts 178°
2026-05-07 15:45 39.99621 3.41730 17859 ft 373 kts 177°
2026-05-07 15:45 39.97037 3.41877 17488 ft 372 kts 177°
2026-05-07 15:46 39.91872 3.42172 16898 ft 371 kts 177°
2026-05-07 15:46 39.89303 3.42318 16606 ft 370 kts 177°
2026-05-07 15:46 39.86737 3.42463 16309 ft 368 kts 177°
2026-05-07 15:47 39.84161 3.42608 16011 ft 367 kts 177°
2026-05-07 15:47 39.81624 3.42751 15717 ft 366 kts 177°
2026-05-07 15:47 39.79100 3.42894 15419 ft 365 kts 177°
2026-05-07 15:47 39.76572 3.43036 15123 ft 363 kts 177°
2026-05-07 15:48 39.74033 3.43178 14831 ft 362 kts 177°
2026-05-07 15:48 39.71542 3.42965 14491 ft 363 kts 194°
2026-05-07 15:48 39.69319 3.41466 14124 ft 366 kts 220°
2026-05-07 15:48 39.67781 3.38834 13756 ft 369 kts 242°
2026-05-07 15:49 39.66724 3.35821 13458 ft 361 kts 244°
2026-05-07 15:49 39.65691 3.32946 13379 ft 345 kts 243°
2026-05-07 15:49 39.64667 3.30199 13299 ft 330 kts 242°
2026-05-07 15:49 39.63681 3.27616 13220 ft 316 kts 242°
2026-05-07 15:50 39.62706 3.25085 12978 ft 309 kts 242°
2026-05-07 15:50 39.61753 3.22622 12660 ft 306 kts 242°
2026-05-07 15:50 39.60805 3.20174 12207 ft 307 kts 242°
2026-05-07 15:50 39.59843 3.17694 11710 ft 309 kts 242°
2026-05-07 15:51 39.58881 3.15213 11222 ft 311 kts 243°
2026-05-07 15:51 39.57924 3.12743 10715 ft 303 kts 243°
2026-05-07 15:51 39.56995 3.10346 10220 ft 293 kts 243°
2026-05-07 15:51 39.56095 3.08030 9727 ft 287 kts 243°
2026-05-07 15:52 39.55199 3.05722 9234 ft 290 kts 243°
2026-05-07 15:52 39.54287 3.03370 8779 ft 291 kts 243°
2026-05-07 15:52 39.53380 3.01038 8350 ft 291 kts 243°
2026-05-07 15:52 39.52475 2.98713 7915 ft 292 kts 243°
2026-05-07 15:53 39.51556 2.96358 7485 ft 292 kts 243°
2026-05-07 15:53 39.50647 2.94025 7062 ft 292 kts 243°
2026-05-07 15:53 39.49725 2.91664 6640 ft 293 kts 243°
2026-05-07 15:53 39.48809 2.89322 6256 ft 291 kts 242°
2026-05-07 15:54 39.47909 2.87017 5887 ft 290 kts 242°
2026-05-07 15:54 39.46995 2.84683 5513 ft 288 kts 242°
2026-05-07 15:54 39.46098 2.82397 5143 ft 287 kts 242°
2026-05-07 15:54 39.45199 2.80104 4772 ft 283 kts 242°
2026-05-07 15:55 39.44313 2.77843 4503 ft 277 kts 242°
2026-05-07 15:55 39.43595 2.75587 4254 ft 272 kts 253°
2026-05-07 15:55 39.43227 2.73221 4007 ft 267 kts 262°
2026-05-07 15:55 39.43004 2.70842 3756 ft 263 kts 263°
2026-05-07 15:56 39.42807 2.68499 3505 ft 259 kts 263°
2026-05-07 15:56 39.42610 2.66243 3256 ft 250 kts 263°
2026-05-07 15:56 39.42411 2.64053 3004 ft 243 kts 263°
2026-05-07 15:56 39.42212 2.61931 2750 ft 232 kts 263°
2026-05-07 15:57 39.42022 2.59918 2636 ft 220 kts 263°
2026-05-07 15:57 39.41891 2.58047 2601 ft 202 kts 274°
2026-05-07 15:57 39.42432 2.56511 2456 ft 180 kts 326°
2026-05-07 15:57 39.43534 2.56045 2434 ft 166 kts
2026-05-07 15:58 39.44689 2.56045 2390 ft 164 kts 10°
2026-05-07 15:58 39.45802 2.56286 2344 ft 161 kts 20°
2026-05-07 15:58 39.46843 2.56767 2293 ft 158 kts 31°
2026-05-07 15:58 39.47791 2.57497 2241 ft 155 kts 43°
2026-05-07 15:59 39.48540 2.58460 2198 ft 153 kts 54°
2026-05-07 15:59 39.49183 2.59552 2042 ft 152 kts 58°
2026-05-07 15:59 39.49785 2.60674 1845 ft 150 kts 61°
2026-05-07 15:59 39.50352 2.61820 1646 ft 151 kts 62°
2026-05-07 16:00 39.50899 2.62973 1453 ft 150 kts 62°
2026-05-07 16:00 39.51444 2.64133 1254 ft 151 kts 62°
2026-05-07 16:00 39.51976 2.65264 1054 ft 141 kts 62°
2026-05-07 16:00 39.52467 2.66302 853 ft 131 kts 63°
2026-05-07 16:01 39.52937 2.67301 700 ft 131 kts 62°
2026-05-07 16:01 39.53413 2.68311 531 ft 130 kts 62°
2026-05-07 16:01 39.53881 2.69303 358 ft 130 kts 62°
2026-05-07 16:01 39.54348 2.70302 185 ft 129 kts 61°
2026-05-07 16:02 39.54818 2.71292 20 ft 125 kts 61°
2026-05-07 16:02 39.55200 2.72108 11 ft 85 kts 59°
2026-05-07 16:02 39.55427 2.72577 6 ft 43 kts 64°
2026-05-07 16:02 39.55494 2.72877 12 ft 26 kts 87°
2026-05-07 16:03 39.55497 2.73042 14 ft 8 kts 89°
2026-05-07 16:03 39.55498 2.73082 14 ft 4 kts 89°
2026-05-07 16:03 39.55499 2.73138 15 ft 11 kts 86°
2026-05-07 16:03 39.55539 2.73262 17 ft 21 kts 60°
2026-05-07 16:04 39.55616 2.73429 18 ft 20 kts 64°
2026-05-07 16:04 39.55557 2.73550 21 ft 19 kts 151°
2026-05-07 16:04 39.55428 2.73651 29 ft 20 kts 149°
2026-05-07 16:04 39.55312 2.73744 39 ft 20 kts 148°
2026-05-07 16:05 39.55197 2.73818 44 ft 16 kts 191°
2026-05-07 16:05 39.55122 2.73779 45 ft 11 kts 189°
2026-05-07 16:05 39.55067 2.73715 43 ft 9 kts 237°
2026-05-07 16:05 39.55054 2.73689 42 ft 0 kts 237°